Regional Weather Roundup
Issued by NWS

Home | Current Version | Previous Version | Text Only | Print | Product List | Glossary Off
Versions: 1 2 3 4 5 6 7 8 9 10 11 12 13 14 15 16 17 18 19 20 21 22 23 24 25 26 27 28 29 30 31 32 33 34 35 36 37 38 39 40 41 42 43 44 45 46 47 48 49 50

000
ASUS43 KOAX 301202
RWRNE

WEATHER ROUNDUP FOR NEBRASKA
NATIONAL WEATHER SERVICE OMAHA NE
700 AM CDT WED JUL 30 2014

NOTES: SATELLITE DATA IS BEING USED TO AUGMENT CLOUD COVER ABOVE
       12000 FEET.
       "FAIR" INDICATES FEW OR NO CLOUDS BELOW 12,000 FEET WITH NO
       SIGNIFICANT WEATHER AND/OR OBSTRUCTIONS TO VISIBILITY.

  * THESE STATIONS DO NOT REPORT WEATHER SUCH AS RAIN...SNOW OR FOG.

NEZ001>004-019>022-054>056-301300-
NEBRASKA PANHANDLE

CITY           SKY/WX    TMP DP  RH WIND       PRES   REMARKS
SCOTTSBLUFF    CLOUDY    62  59  90 CALM      30.26S
6HR MIN TEMP:  62; 6HR MAX TEMP:  65; 6HR PCP: TRACE;

ALLIANCE       MOCLDY    59  54  83 N5        30.25S
6HR MIN TEMP:  59; 6HR MAX TEMP:  65;

CHADRON        MOCLDY    54  52  93 SW3       30.24S
6HR MIN TEMP:  52; 6HR MAX TEMP:  58;

KIMBALL        CLOUDY    60  60  97 CALM      30.28R FOG
SIDNEY         CLOUDY    62  60  93 E6        30.27R
6HR MIN TEMP:  62; 6HR MAX TEMP:  64; 6HR PCP:  0.04;

$$

NEZ057>060-069>072-079>082-301300-
SOUTHWEST NEBRASKA

CITY           SKY/WX    TMP DP  RH WIND       PRES   REMARKS
NORTH PLATTE   MOCLDY    60  57  89 CALM      30.20R
6HR MIN TEMP:  60; 6HR MAX TEMP:  66;

IMPERIAL       CLOUDY    63  60  90 SE5       30.21R
6HR MIN TEMP:  62; 6HR MAX TEMP:  65; 6HR PCP:  0.62;

LEXINGTON      MOCLDY    61  59  94 CALM      30.19R
MCCOOK         CLOUDY    63  62  97 N6        30.19R FOG
6HR MIN TEMP:  62; 6HR MAX TEMP:  69; 6HR PCP:  0.32;

OGALLALA       CLOUDY    61  60  96 CALM      30.22S
$$

NEZ005>010-023>029-035>040-094-301300-
NORTH CENTRAL NEBRASKA

CITY           SKY/WX    TMP DP  RH WIND       PRES   REMARKS
VALENTINE      PTCLDY    49  48  97 W5        30.21R
6HR MIN TEMP:  48; 6HR MAX TEMP:  56;

AINSWORTH      CLEAR     52  49  89 W5        30.20S
BROKEN BOW     PTCLDY    55  53  93 CALM      30.19R
6HR MIN TEMP:  55; 6HR MAX TEMP:  67;

O`NEILL        FOG       52  49  90 CALM      30.18R VSB 1/4
ORD            PTCLDY    53  52  96 CALM      30.17S
6HR MIN TEMP:  52; 6HR MAX TEMP:  61;

THEDFORD       PTCLDY    52  51  97 CALM      30.22R
$$

NEZ041-046>049-061>064-073>077-083>087-301300-
SOUTH CENTRAL NEBRASKA

CITY           SKY/WX    TMP DP  RH WIND       PRES   REMARKS
GRAND ISLAND   PTCLDY    57  54  89 N5        30.17S
6HR MIN TEMP:  57; 6HR MAX TEMP:  65;

AURORA         PTCLDY    58  58 100 N3        30.17R
HASTINGS       MOCLDY    60  54  80 CALM      30.16R
6HR MIN TEMP:  59; 6HR MAX TEMP:  68;

HEBRON         CLOUDY    63  57  79 CALM      30.15R
HOLDREGE       CLOUDY    62  59  90 NE3       30.17R
KEARNEY *      MOCLDY    59  55  88 N6        30.18R
YORK           MOCLDY    55  55 100 CALM      30.16S
$$

NEZ011>018-030>034-042>045-301300-
NORTHEAST NEBRASKA

CITY           SKY/WX    TMP DP  RH WIND       PRES   REMARKS
NORFOLK        PTCLDY    54  52  93 CALM      30.16S
6HR MIN TEMP:  52; 6HR MAX TEMP:  59;

ALBION         CLEAR     52  50  93 CALM      30.17S
BLAIR          CLEAR     56  51  85 CALM      30.14R
COLUMBUS *     MOCLDY    55  52  88 CALM      30.16S
FREMONT        CLEAR     55  53  92 NW5       30.15S
TEKAMAH        CLEAR     53  50  89 CALM      30.14S
6HR MIN TEMP:  50; 6HR MAX TEMP:  58;

WAYNE          CLEAR     51  49  95 CALM      30.17R
$$

NEZ050>053-065>068-078-088>093-301300-
SOUTHEAST NEBRASKA

CITY           SKY/WX    TMP DP  RH WIND       PRES   REMARKS
LINCOLN        PTCLDY    58  54  86 N6        30.16S
6HR MIN TEMP:  56; 6HR MAX TEMP:  66;

OMAHA EPPLEY   PTCLDY    56  54  93 N5        30.15R
6HR MIN TEMP:  54; 6HR MAX TEMP:  60;

BEATRICE       MOCLDY    59  57  94 NE6       30.14S
FALLS CITY     MOCLDY    60  57  89 NW3       30.12S
6HR MIN TEMP:  58; 6HR MAX TEMP:  64;

NEBRASKA CITY  PTCLDY    59  55  87 N5        30.14S
PLATTSMOUTH    CLEAR     57  54  91 CALM      30.14S
$$

NEZ044-045-051>053-067-301300-
OMAHA AREA

CITY           SKY/WX    TMP DP  RH WIND       PRES   REMARKS
OMAHA EPPLEY   PTCLDY    56  54  93 N5        30.15R
6HR MIN TEMP:  54; 6HR MAX TEMP:  60;

BLAIR          CLEAR     56  51  85 CALM      30.14R
FREMONT        CLEAR     55  53  92 NW5       30.15S
MILLARD        CLEAR     56  55  96 CALM      30.14S FOG
OFFUTT AFB     CLEAR     53  53 100 W5        30.14R
PLATTSMOUTH    CLEAR     57  54  91 CALM      30.14S
WAHOO          FAIR      55  52  90 CALM      30.15S
$$



USA.gov is the U.S. government's official web portal to all federal, state and local government web resources and services.